Satellite-Ground Cal/Val Site Overpasses Predictions

Prediction of Satellite NPP Overpassing Cal/Val Site: Antarctic Dome C

Ground Cal/Val Site Location: Latitude: -75.10, Longitude: 123.35; Satellite-Ground Site NADIR distance within 100 km.

Table of predicted overpasses for the next 14.0 days since TLE Epoch: 4/20/2018
Interval Starting Time Ending Time Minimum Distance Time Minimum Distance (km)
1 04/22/2018 14:54:45 04/22/2018 14:55:14 04/22/2018 14:55:00 21.57
2 04/23/2018 14:36:04 04/23/2018 14:36:18 04/23/2018 14:36:11 85.52
3 04/24/2018 07:37:36 04/24/2018 07:38:03 04/24/2018 07:37:49 34.98
4 04/25/2018 07:18:51 04/25/2018 07:19:10 04/25/2018 07:19:00 75.11
5 04/27/2018 15:01:06 04/27/2018 15:01:29 04/27/2018 15:01:18 58.60
6 04/28/2018 14:42:15 04/28/2018 14:42:40 04/28/2018 14:42:28 50.64
7 04/29/2018 07:43:56 04/29/2018 07:44:17 04/29/2018 07:44:07 70.21
8 04/30/2018 07:25:04 04/30/2018 07:25:31 04/30/2018 07:25:17 37.70
9 05/02/2018 15:07:31 05/02/2018 15:07:38 05/02/2018 15:07:34 96.31


NCC Satellite Cal/Val Overpasses Prediction Service
